Siga o Apolo11 no Facebook   Siga o Apolo11 no Twiiter
Ciência, Espaço e Tecnologia




Elementos Keplerianos formato Two Line

Para que um programa de rastreio possa saber a localização exata de qualquer satélite no espaço e assim poder rastreá-lo corretamente, é necessário que ele seja carregado com algumas informações.

Estas informações são chamadas de Elementos Orbitais ou Elementos Keplerianos e consistem em 2 linhas com dezenas de números. Esses números nada mais são que os parâmetros orbitais do satélite, tais como altitude, atitude, excentricidade da órbita, número de órbitas por dia, etc.

Com base nestas informações o programa é capaz de determinar com bastante exatidão a posição de qualquer satélite no espaço e nos informar em qual horário este estará dentro do alcance de nossa estação. Para que isso seja feito com precisão é necessário que os dados estejam sempre bem atualizadas.

Devido aos parâmetros orbitais serem descritos em 2 linhas, estes formato é também conhecido internacionalmente por 2line (leia-se Two Line”).

Para atualizar seu programa de rastreio basta copiar os dados disponibilizados e fornece-los ao programa. Nossos elementos orbitais são atualizados diariamente.

NOAATodos os satélites ambientais da série NOAA
30 DiasSatélites lançados nos últimos 30 dias
ISSSatélites e foguetes relacionados à Estação Espacial Internacional
HAMSatélites construídos por radiomadores
CUBESatélites tipo cubo, com 10 centímetros de lado
METEOSatélites voltados à previsão do tempo
EDUSatélites construídos e operados por universidades
VIS100 satélites mais brilhantes que podem ser vistos a olho nú



Satélites de Radioamadores
PHASE 3B (AO-10)        
1 14129U 83058B   21010.65471778 -.00000025  00000-0  00000-0 0  9998
2 14129  25.7687 181.0051 6069244 300.1722  13.3332  2.05871063254677
UOSAT 2 (UO-11)         
1 14781U 84021B   21015.73141511  .00000098  00000-0  18099-4 0  9996
2 14781  97.5897  23.1267 0007495 215.5568 144.5148 14.83237398963290
LUSAT (LO-19)           
1 20442U 90005G   21015.57172523 -.00000003  00000-0  15288-4 0  9999
2 20442  98.7215 329.8237 0010706 249.2642 110.7395 14.32973339618930
EYESAT A (AO-27)        
1 22825U 93061C   21015.78651160 -.00000011  00000-0  13652-4 0  9995
2 22825  98.9241  29.5957 0009374 116.3421 243.8724 14.30103626424165
ITAMSAT (IO-26)         
1 22826U 93061D   21016.07277402 -.00000011  00000-0  13784-4 0  9998
2 22826  98.9183  29.8129 0009966 104.6440 255.5847 14.30441185424692
RADIO ROSTO (RS-15)     
1 23439U 94085A   21015.97864564 -.00000037  00000-0  15882-3 0  9993
2 23439  64.8175 262.5573 0155988   2.6262 357.5448 11.27570029 73143
JAS-2 (FO-29)           
1 24278U 96046B   21015.46020471  .00000003  00000-0  38471-4 0  9991
2 24278  98.5848 103.6040 0350347 185.7869 173.9173 13.53101792205557
TECHSAT 1B (GO-32)      
1 25397U 98043D   21015.83026129 -.00000010  00000-0  15249-4 0  9997
2 25397  98.7543 321.9498 0001837 130.3268 229.8071 14.23699281169776
ISS (ZARYA)             
1 25544U 98067A   21016.23305200  .00001366  00000-0  32598-4 0  9992
2 25544  51.6457  14.3113 0000235 231.0982 239.8264 15.49297436265049
PCSAT (NO-44)           
1 26931U 01043C   21016.19132844  .00000058  00000-0  54011-4 0  9999
2 26931  67.0525 313.3894 0007433 271.9466  88.0784 14.30602859  7573
SAUDISAT 1C (SO-50)     
1 27607U 02058C   21015.89334244  .00000004  00000-0  20884-4 0  9993
2 27607  64.5560  84.8397 0029350  89.3628 271.0838 14.75702581972067
CUTE-1 (CO-55)          
1 27844U 03031E   21015.74971788  .00000040  00000-0  37740-4 0  9991
2 27844  98.6815  26.2695 0010282 155.6596 204.5070 14.22282190910272
CUBESAT XI-IV (CO-57)   
1 27848U 03031J   21015.76803835  .00000023  00000-0  30353-4 0  9998
2 27848  98.6876  26.8556 0009954 167.9603 192.1815 14.21862970910115
MOZHAYETS 4 (RS-22)     
1 27939U 03042A   21016.13976679  .00000064  00000-0  20116-4 0  9991
2 27939  98.1173 154.5298 0013714  46.5089 313.7256 14.66932744925192
CUBESAT XI-V            
1 28895U 05043F   21015.79553904  .00000115  00000-0  31073-4 0  9990
2 28895  98.0357 152.5935 0016092 335.3356  24.7075 14.63853763811676
CUTE-1.7+APD II (CO-65) 
1 32785U 08021C   21016.22347906  .00000225  00000-0  29738-4 0  9991
2 32785  97.5946   1.1402 0013819 142.4971 217.7213 14.88611891689592
DELFI-C3 (DO-64)        
1 32789U 08021G   21015.86857129  .00001331  00000-0  89443-4 0  9995
2 32789  97.3948  57.0176 0010626 311.7189  48.3130 15.08391789693820
SEEDS II (CO-66)        
1 32791U 08021J   21015.92062169  .00000452  00000-0  50726-4 0  9992
2 32791  97.5572   6.8920 0014596 112.0432 248.2339 14.91247220690123
YUBILEINY (RS-30)       
1 32953U 08025A   21016.03403878  .00000028  00000-0  12906-3 0  9991
2 32953  82.5041 145.7291 0018646 310.4787  49.4662 12.43099521574045
KKS-1 (KISEKI)          
1 33499U 09002H   21016.17457835  .00000111  00000-0  24239-4 0  9996
2 33499  98.2893 242.5426 0009419 159.4721 200.6868 14.75607007644388
SWISSCUBE               
1 35932U 09051B   21016.12143480  .00000116  00000-0  37210-4 0  9995
2 35932  98.6066 211.2741 0007383 187.3801 172.7288 14.56476662600824
BEESAT-1                
1 35933U 09051C   21015.47519363  .00000101  00000-0  33719-4 0  9994
2 35933  98.6044 212.4634 0005314 200.3410 159.7576 14.56541825600761
ITUPSAT1                
1 35935U 09051E   21015.80098208  .00000086  00000-0  30889-4 0  9990
2 35935  98.6150 212.9666 0007645 202.3259 157.7606 14.55680112600565
XIWANG-1 (HOPE-1)       
1 36122U 09072B   21016.21735576 -.00000023  00000-0  51000-4 0  9994
2 36122 100.1129   3.3129 0008198  93.8286 266.3777 13.16358748532868
JUGNU                   
1 37839U 11058B   21015.83839990  .00000326  00000-0  31490-4 0  9995
2 37839  19.9623  74.7547 0018719 209.3983 307.4069 14.12700578478852
SRMSAT                  
1 37841U 11058D   21016.00932041  .00000291  00000-0  14553-4 0  9991
2 37841  19.9710 142.4438 0011995  58.9449  99.0826 14.10683094478315
M-CUBED & EXP-1 PRIME   
1 37855U 11061F   21015.82373779  .00001442  00000-0  77303-4 0  9997
2 37855 101.7258 220.0679 0168636 164.4216 196.2278 15.07089541503186
STRAND-1                
1 39090U 13009E   21015.79332925  .00000028  00000-0  24920-4 0  9994
2 39090  98.4367 221.4814 0009497  19.6841 340.4709 14.35163933413148
SOMP                    
1 39134U 13015E   21016.15879370  .00001365  00000-0  68627-4 0  9998
2 39134  64.8633 307.4567 0012806 219.6070 140.4124 15.21877559428411
BEESAT-3                
1 39135U 13015F   21016.17349337  .00001113  00000-0  62639-4 0  9994
2 39135  64.8680 334.1530 0018029 208.5357 151.4784 15.18830338427906
BEESAT-2                
1 39136U 13015G   21016.17442502  .00001056  00000-0  60716-4 0  9993
2 39136  64.8743 339.9261 0029378 263.5331  96.2450 15.18207110427792
ZACUBE-1 (TSHEPISOSAT)  
1 39417U 13066B   21016.00704593  .00000244  00000-0  36856-4 0  9990
2 39417  97.5792   8.3662 0057462 301.7915  57.7710 14.81409196386502
GOMX-1                  
1 39430U 13066Q   21016.20395714  .00000128  00000-0  32521-4 0  9994
2 39430  97.8081 308.0634 0149379 234.2350 124.4891 14.59521535380831
CUBEBUG-2 (LO-74)       
1 39440U 13066AA  21015.66920796  .00000288  00000-0  46770-4 0  9996
2 39440  97.6568 352.7424 0080336  12.3438 347.9716 14.76140647383888
FUNCUBE-1 (AO-73)       
1 39444U 13066AE  21016.01577238  .00000294  00000-0  42327-4 0  9990
2 39444  97.5713  10.7005 0056441 292.7189  66.8065 14.82293374385447
UWE-3                   
1 39446U 13066AG  21015.70049814  .00000267  00000-0  41908-4 0  9995
2 39446  97.6198 359.8470 0069292 338.6226  21.2094 14.78676575383932
SPROUT                  
1 39770U 14029E   21016.19434749  .00000589  00000-0  70028-4 0  9996
2 39770  97.9070 127.7620 0008899 356.3165   3.7985 14.88125305360691
UNISAT-6                
1 40012U 14033C   21015.85772914  .00000187  00000-0  34825-4 0  9992
2 40012  97.6868 226.1722 0058988  34.9103 325.5952 14.74226603353718
DUCHIFAT-1              
1 40021U 14033M   21016.08562257  .00000453  00000-0  51502-4 0  9992
2 40021  97.9604 314.8104 0011821 311.6821  48.3384 14.91145387357570
QB50P1                  
1 40025U 14033R   21015.97999990  .00000247  00000-0  32068-4 0  9998
2 40025  97.9263 306.3554 0011622 326.1645  33.8829 14.89305196357233
NUDT-PHONESAT           
1 40900U 15049B   21016.10328463  .00002963  00000-0  12039-3 0  9997
2 40900  97.4253  31.2939 0011175 322.9185 107.6935 15.25310453295597
ZDPS 2A                 
1 40901U 15049C   21016.11153356  .00001502  00000-0  75059-4 0  9996
2 40901  97.4620  25.0884 0013314 359.7524  87.8966 15.18933274294842
ZDPS 2B                 
1 40902U 15049D   21016.09034764  .00001500  00000-0  74958-4 0  9990
2 40902  97.4641  22.3511 0013165 357.7766  72.9514 15.18947798294810
XW-2A                   
1 40903U 15049E   21016.13526909  .00002614  00000-0  58738-4 0  9998
2 40903  97.2599  70.9974 0011898 202.7291 212.4662 15.44218513299282
KAITUO 1A               
1 40904U 15049F   21016.14600615  .00000443  00000-0  26550-4 0  9992
2 40904  97.4822  20.0588 0014976  12.3889  51.8529 15.15963280294467
2015-049G               
1 40905U 15049G   21016.12936272  .00000613  00000-0  36496-4 0  9991
2 40905  97.4937  17.1633 0015887  10.7343  53.6613 15.14792710294272
XW-2C                   
1 40906U 15049H   21016.07847375  .00000739  00000-0  41405-4 0  9996
2 40906  97.4826  20.4027 0014872   3.3886  66.8315 15.16427714294475
XW-2D                   
1 40907U 15049J   21016.10333667  .00000871  00000-0  47801-4 0  9998
2 40907  97.4805  20.1748 0014083   0.0164  72.4285 15.16707857294509
LILACSAT-2              
1 40908U 15049K   21016.10477103  .00000400  00000-0  25419-4 0  9992
2 40908  97.4983  18.2362 0016297  12.7055  55.5751 15.14254291294175
XW-2F                   
1 40910U 15049M   21016.11801813  .00001464  00000-0  74086-4 0  9990
2 40910  97.4701  23.0704 0014123 347.5894  80.7974 15.18521655294606
